TimeMST,TemperatureF,Dew PointF,Humidity,Sea Level PressureIn,VisibilityMPH,Wind Direction,Wind SpeedMPH,Gust SpeedMPH,PrecipitationIn,Events,Conditions,WindDirDegrees,DateUTC
12:53 AM,33.1,23.0,66,30.05,10.0,West,6.9,-,N/A,,Scattered Clouds,260,2013-11-09 07:53:00
1:53 AM,37.0,24.1,59,30.04,10.0,West,10.4,-,N/A,,Overcast,280,2013-11-09 08:53:00
2:53 AM,37.9,25.0,60,30.07,10.0,West,8.1,-,N/A,,Overcast,280,2013-11-09 09:53:00
3:53 AM,37.9,25.0,60,30.09,10.0,WNW,10.4,-,N/A,,Overcast,290,2013-11-09 10:53:00
4:53 AM,35.1,25.0,67,30.14,10.0,West,9.2,-,N/A,,Overcast,280,2013-11-09 11:53:00
5:53 AM,37.0,25.0,62,30.17,10.0,NW,8.1,-,N/A,,Overcast,320,2013-11-09 12:53:00
6:53 AM,35.1,25.0,67,30.22,10.0,NNW,5.8,-,N/A,,Overcast,330,2013-11-09 13:53:00
7:53 AM,36.0,26.1,67,30.25,10.0,Calm,Calm,-,N/A,,Mostly Cloudy,0,2013-11-09 14:53:00
8:53 AM,39.0,26.1,60,30.23,10.0,North,6.9,-,N/A,,Overcast,350,2013-11-09 15:53:00
9:53 AM,39.0,26.1,60,30.25,10.0,North,4.6,-,N/A,,Overcast,360,2013-11-09 16:53:00
10:53 AM,42.1,26.1,53,30.25,10.0,NNE,6.9,-,N/A,,Overcast,20,2013-11-09 17:53:00
11:53 AM,41.0,24.1,51,30.25,10.0,Calm,Calm,-,N/A,,Overcast,0,2013-11-09 18:53:00
12:53 PM,41.0,24.1,51,30.25,10.0,Calm,Calm,-,N/A,,Overcast,0,2013-11-09 19:53:00
1:53 PM,42.1,24.1,49,30.23,10.0,Calm,Calm,-,N/A,,Overcast,0,2013-11-09 20:53:00
2:53 PM,44.1,24.1,45,30.23,10.0,NE,5.8,-,N/A,,Overcast,50,2013-11-09 21:53:00
3:53 PM,43.0,23.0,45,30.23,10.0,East,6.9,-,N/A,,Overcast,90,2013-11-09 22:53:00
4:53 PM,37.0,24.1,59,30.27,10.0,East,6.9,-,N/A,,Partly Cloudy,100,2013-11-09 23:53:00
5:53 PM,33.1,24.1,70,30.28,10.0,South,4.6,-,N/A,,Overcast,180,2013-11-10 00:53:00
6:53 PM,36.0,24.1,62,30.28,10.0,SE,8.1,-,N/A,,Mostly Cloudy,140,2013-11-10 01:53:00
7:53 PM,32.0,23.0,69,30.28,10.0,South,8.1,-,N/A,,Partly Cloudy,170,2013-11-10 02:53:00
8:53 PM,30.0,23.0,75,30.28,10.0,South,9.2,-,N/A,,Clear,180,2013-11-10 03:53:00
9:53 PM,30.9,23.0,72,30.26,10.0,South,9.2,-,N/A,,Clear,170,2013-11-10 04:53:00
10:53 PM,32.0,23.0,69,30.23,10.0,South,9.2,-,N/A,,Clear,170,2013-11-10 05:53:00
11:53 PM,33.1,25.0,72,30.22,10.0,SSE,13.8,-,N/A,,Clear,160,2013-11-10 06:53:00